www.pogodaiklimat.ru

Погода и климат >> Архив погоды >> Австралия >> Birdsville Airport


ПОГОДА в Birdsville Airport

  • Прогноз погоды в Birdsville Airport
  • Монитор погоды в Birdsville Airport
  • Климат города

АРХИВ ПОГОДЫ в Birdsville Airport

Время (UTC), дата Ветер
(напр.,м/с)
 
Видим.   Явления Облачность Т
(С)
Тd
(С)
f
(%)
Тe
(С)
Тes
(С)
Комфортность P
(гПа)
Po
(гПа)
Тmin
(С)
Tmax
(С)
R
(мм)
R24
(мм)
S
(см)
05 12.08 ЮВ 4 н/о н/о +26.7 +0.4 18 +25 +25 комфорт 1018.9 1013.3
06 12.08 ЮВ 4 н/о н/о +27.1 +1.5 19 +25 +25 комфорт 1018.3 1012.7
08 12.08 Ю 4 н/о н/о +26.2 +1.5 20 +25 +25 комфорт 1018.5 1012.9
09 12.08 Ю 3 н/о н/о +22.6 +1.0 24 +22 +22 комфорт 1019.0 1013.4
11 12.08 Ю 4 н/о н/о +20.1 +1.0 28 +20 +20 1020.2 1014.6
12 12.08 Ю 4 н/о н/о +18.9 +0.5 29 +19 +19 1020.6 1015.0
14 12.08 Ю 3 н/о н/о +16.1 -0.6 32 +16 +16 1020.8 1015.2 +27.7
15 12.08 Ю 2 н/о н/о +15.2 -0.9 33 +15 +15 1020.6 1015.0
17 12.08 штиль 0 н/о н/о +13.5 -1.6 35 +14 +14 1019.7 1014.1
18 12.08 ЮВ 2 н/о н/о +10.6 -5.0 33 +10 +10 1019.4 1013.8
20 12.08 ЮВ 2 н/о н/о +11.2 -2.2 39 +10 +10 1020.1 1014.5
21 12.08 ЮВ 3 н/о н/о +9.9 -3.7 38 +8 +8 1020.6 1015.0
23 12.08 В 3 н/о н/о +17.6 -0.2 30 +18 +18 1021.8 1016.2
00 13.08 СВ 4 н/о н/о +21.2 +0.4 25 +21 +21 комфорт 1022.0 1016.4
02 13.08 СВ 5 н/о н/о +28.6 +2.7 19 +27 +27 жарко 1021.3 1015.7 +9.9
03 13.08 СВ 5 н/о н/о +29.2 +1.7 17 +27 +27 жарко 1019.8 1014.2
05 13.08 СВ 3 н/о н/о +31.2 +0.6 14 +28 +28 жарко 1017.8 1012.2
06 13.08 СВ 2 н/о н/о +31.3 +0.6 14 +28 +28 жарко 1017.3 1011.7
08 13.08 ЮВ 3 н/о н/о +29.6 +0.2 15 +27 +27 жарко 1017.8 1012.2
09 13.08 ЮВ 2 н/о н/о +26.2 0.0 18 +24 +24 комфорт 1018.2 1012.6
11 13.08 ЮВ 3 н/о н/о +22.3 -0.4 22 +21 +21 комфорт 1019.1 1013.5
12 13.08 ЮВ 3 н/о н/о +20.8 -1.1 23 +21 +21 комфорт 1019.4 1013.8
14 13.08 ЮВ 2 н/о н/о +18.7 -0.7 27 +20 +20 1019.3 1013.7 +32.0
15 13.08 ЮВ 2 н/о н/о +16.5 -1.6 29 +17 +17 1019.0 1013.4
17 13.08 ЮВ 3 н/о н/о +14.0 -1.6 34 +14 +14 1018.5 1012.9
18 13.08 ЮВ 3 н/о н/о +15.6 -1.4 31 +15 +15 1018.3 1012.7
20 13.08 ЮВ 4 н/о н/о +13.6 -2.8 32 +13 +13 1018.6 1013.0
21 13.08 ЮВ 4 н/о н/о +13.6 -1.9 34 +13 +13 1019.3 1013.7
23 13.08 СВ 5 н/о н/о +19.9 -1.8 23 +20 +20 1019.9 1014.3
00 14.08 СВ 6 н/о н/о +23.8 -1.2 19 +22 +22 комфорт 1020.2 1014.6
02 14.08 СВ 7 н/о н/о +30.6 -0.9 13 +27 +27 жарко 1018.5 1012.9 +12.9
03 14.08 СЗ 4 н/о н/о +31.5 -1.3 12 +28 +28 жарко 1017.4 1011.8
05 14.08 ЮЗ 2 н/о н/о +33.1 -1.3 11 +30 +30 жарко 1015.4 1009.8
06 14.08 З 3 н/о н/о +32.9 -1.4 11 +29 +29 жарко 1014.9 1009.3
08 14.08 С 1 н/о н/о +31.8 -1.1 12 +28 +28 жарко 1014.9 1009.3
09 14.08 В 3 н/о н/о +28.5 -1.6 14 +26 +26 жарко 1015.1 1009.5
11 14.08 штиль 0 н/о н/о +22.4 -3.8 17 +21 +21 комфорт 1015.8 1010.2
12 14.08 С 3 н/о н/о +22.1 -1.9 20 +21 +21 комфорт 1015.7 1010.1
14 14.08 С 3 н/о н/о +19.4 -2.8 22 +20 +20 1015.3 1009.7 +33.6
15 14.08 С 4 н/о н/о +18.8 -2.7 23 +19 +19 1014.9 1009.3
17 14.08 С 2 н/о н/о +16.6 -3.5 25 +17 +17 1014.2 1008.6
18 14.08 СВ 3 н/о н/о +14.5 -4.7 26 +14 +14 1013.7 1008.1
20 14.08 С 5 н/о н/о +14.1 -3.6 29 +13 +13 1014.0 1008.4
21 14.08 С 4 н/о н/о +14.4 -3.4 29 +13 +13 1014.6 1009.0
23 14.08 С 5 н/о н/о +22.6 -0.2 22 +22 +22 комфорт 1015.2 1009.6
00 15.08 С 7 н/о н/о +28.6 -0.5 15 +26 +26 жарко 1015.2 1009.6
02 15.08 С 9 н/о н/о +32.1 -0.9 12 +29 +29 жарко 1013.2 1007.6 +13.1
03 15.08 С 10 н/о н/о +32.8 -1.5 11 +29 +29 жарко 1011.9 1006.3
05 15.08 СЗ 8 н/о н/о +34.1 -1.8 10 +30 +30 жарко 1009.8 1004.2
06 15.08 СЗ 9 н/о н/о +34.1 -1.8 10 +30 +30 жарко 1008.8 1003.2
08 15.08 СЗ 8 н/о н/о +32.3 -3.2 10 +29 +29 жарко 1008.5 1002.9
09 15.08 СЗ 4 н/о н/о +27.9 -3.0 13 +25 +25 комфорт 1008.8 1003.2
11 15.08 С 4 н/о н/о +23.1 -2.5 18 +22 +22 комфорт 1009.9 1004.3
12 15.08 С 4 н/о н/о +21.4 -3.1 19 +21 +21 комфорт 1009.9 1004.3
14 15.08 С 5 н/о н/о +19.7 -2.6 22 +20 +20 1009.9 1004.3 +34.9
15 15.08 С 5 н/о н/о +19.0 -2.6 23 +19 +19 1009.5 1003.9
17 15.08 С 6 н/о н/о +21.6 -1.0 22 +21 +21 комфорт 1008.1 1002.6
18 15.08 СЗ 6 н/о н/о +21.9 -0.8 22 +21 +21 комфорт 1008.1 1002.6
20 15.08 Ю 8 н/о н/о +19.6 +6.4 42 +20 +20 1011.4 1005.8
21 15.08 Ю 7 н/о н/о +18.2 +10.1 59 +18 +18 1012.3 1006.7
23 15.08 Ю 7 н/о н/о +19.4 +10.7 57 +20 +20 1014.2 1008.6
00 16.08 Ю 9 н/о н/о +20.8 +10.0 50 +22 +22 комфорт 1014.3 1008.7
02 16.08 Ю 7 н/о н/о +24.1 +9.7 40 +25 +25 комфорт 1013.8 1008.2 +17.8
03 16.08 Ю 8 н/о н/о +24.6 +8.5 36 +25 +25 комфорт 1012.8 1007.2
05 16.08 ЮЗ 7 н/о н/о +25.7 +5.3 27 +25 +25 комфорт 1011.9 1006.3
06 16.08 ЮЗ 6 н/о н/о +25.7 +5.3 27 +25 +25 комфорт 1011.7 1006.1
08 16.08 Ю 4 н/о н/о +24.8 +4.5 27 +24 +24 комфорт 1012.4 1006.8
09 16.08 Ю 3 н/о н/о +22.8 +4.3 30 +23 +23 комфорт 1012.7 1007.1
11 16.08 ЮВ 2 н/о н/о +19.8 +3.5 34 +21 +21 комфорт 1014.0 1008.4
12 16.08 ЮЗ 4 н/о н/о +18.5 +2.8 35 +19 +19 1014.7 1009.1
14 16.08 ЮЗ 3 н/о н/о +16.4 +1.7 37 +16 +16 1014.9 1009.3 +26.7
15 16.08 ЮЗ 3 н/о н/о +14.6 +0.5 38 +14 +14 1014.9 1009.3
17 16.08 Ю 3 н/о н/о +13.5 +1.5 44 +13 +13 1014.2 1008.6
18 16.08 Ю 3 н/о н/о +13.7 +2.0 45 +13 +13 1014.0 1008.4
20 16.08 ЮВ 4 н/о н/о +14.2 +1.8 43 +13 +13 1014.3 1008.7
21 16.08 ЮВ 3 н/о н/о +13.4 +1.7 45 +13 +13 1015.2 1009.6
23 16.08 ЮВ 4 н/о н/о +18.0 +1.9 34 +18 +18 1016.8 1011.2
00 17.08 ЮВ 5 н/о н/о +21.5 +2.7 29 +21 +21 комфорт 1017.1 1011.5
02 17.08 ЮВ 4 н/о н/о +24.8 +3.5 25 +24 +24 комфорт 1016.3 1010.7 +13.1
03 17.08 ЮЗ 3 н/о н/о +26.0 +3.9 24 +25 +25 комфорт 1015.4 1009.8
05 17.08 ЮЗ 5 н/о н/о +26.9 +4.0 23 +26 +26 жарко 1014.3 1008.7
06 17.08 ЮЗ 5 н/о н/о +27.4 +4.5 23 +26 +26 жарко 1014.2 1008.6
08 17.08 Ю 3 н/о н/о +26.7 +4.5 24 +26 +26 жарко 1015.1 1009.5
09 17.08 ЮЗ 4 н/о н/о +24.2 +2.9 25 +23 +23 комфорт 1015.9 1010.3
11 17.08 Ю 5 н/о н/о +21.7 +1.9 27 +21 +21 комфорт 1018.0 1012.4
12 17.08 Ю 6 н/о н/о +20.8 +0.1 25 +21 +21 комфорт 1018.6 1013.0
14 17.08 Ю 6 н/о н/о +19.6 -0.4 26 +19 +19 1019.2 1013.6 +28.3
15 17.08 Ю 4 н/о н/о +18.0 -0.3 29 +18 +18 1019.3 1013.7
17 17.08 Ю 4 н/о н/о +15.7 -0.5 33 +15 +15 1019.4 1013.8
18 17.08 Ю 4 н/о н/о +14.2 -1.0 35 +13 +13 1019.3 1013.7
20 17.08 Ю 6 н/о н/о +14.6 -0.7 35 +13 +13 1020.5 1014.9
21 17.08 Ю 6 н/о н/о +13.9 -0.9 36 +12 +12 1021.3 1015.7
23 17.08 Ю 9 н/о н/о +16.6 +2.2 38 +15 +15 1023.3 1017.7
00 18.08 Ю 10 н/о н/о +17.9 +2.2 35 +17 +17 1024.3 1018.7
02 18.08 Ю 9 н/о н/о +21.1 +0.9 26 +21 +21 комфорт 1023.8 1018.2 +13.3
03 18.08 Ю 8 н/о н/о +22.2 +0.1 23 +22 +22 комфорт 1022.9 1017.3
05 18.08 Ю 7 н/о н/о +23.7 -2.8 17 +22 +22 комфорт 1021.6 1016.0
06 18.08 Ю 7 н/о н/о +23.8 -4.4 15 +22 +22 комфорт 1021.6 1016.0
08 18.08 Ю 6 н/о н/о +22.6 -6.2 14 +21 +21 комфорт 1022.2 1016.6
09 18.08 Ю 4 н/о н/о +20.3 -6.3 16 +20 +20 1022.6 1017.0
11 18.08 Ю 5 н/о н/о +17.5 -7.8 17 +17 +17 1024.0 1018.4
12 18.08 Ю 5 н/о н/о +15.9 -7.7 19 +15 +15 1024.3 1018.7
14 18.08 Ю 5 н/о н/о +14.7 -6.8 22 +14 +14 1024.4 1018.8 +24.6
15 18.08 Ю 3 н/о н/о +13.0 -6.5 25 +12 +12 1024.5 1018.9
17 18.08 ЮВ 4 н/о н/о +10.5 -6.3 30 +9 +9 1023.9 1018.3
18 18.08 ЮВ 3 н/о н/о +9.1 -5.9 34 +8 +8 1024.1 1018.5
20 18.08 Ю 3 н/о н/о +7.4 -5.6 39 +6 +6 1025.1 1019.5
21 18.08 Ю 2 н/о н/о +6.7 -5.3 42 +5 +5 1026.0 1020.4
23 18.08 ЮВ 5 н/о н/о +12.6 -2.4 35 +11 +11 1027.3 1021.6
00 19.08 ЮВ 6 н/о н/о +15.9 -1.2 31 +15 +15 1027.2 1021.5
02 19.08 ЮВ 7 н/о н/о +19.9 -0.7 25 +20 +20 1026.5 1020.8 +6.7

 

Местоположение метеостанции Birdsville Airport (Квинсленд, Австралия): широта -25.90 долгота 139.35 высота над уровнем моря 47 м.

В архиве по умолчанию представлена погода в Birdsville Airport за последнюю неделю. Архивные данные за месяц целиком и за предыдущие месяцы, начиная с января 2011 года, Вы можете получить, выбрав интересующий диапазон дат из раскрывающегося списка и нажав кнопку "Ввод!".

Внимание! Время в таблицах - всемирное. Для получения местного времени необходимо прибавить поправку, которая в Birdsville Airport равна 10 ч.

Смотрите также архив погоды в соседних городах и на ближайших метеорологических станциях:

Погода в Moomba Airport (Южная Австралия, Австралия) (259 км)
Погода в Ballera Gas Field (Квинсленд, Австралия) (298 км)
Погода в Oodnadatta Airport (Южная Австралия, Австралия) (429 км)
Погода в Marree Aero (Южная Австралия, Австралия) (437 км)
Погода в Phosphate Hill Airport (Квинсленд, Австралия) (460 км)
Погода в Jervois (Северная территория, Австралия) (461 км)
Погода в Tibooburra Airport (Новый Южный Уэльс, Австралия) (476 км)
Погода в Trepell Airport (Квинсленд, Австралия) (479 км)
Погода в Thargomindah Airport (Квинсленд, Австралия) (499 км)
Погода в Leigh Creek Airport (Южная Австралия, Австралия) (531 км)

Пояснения к столбцам:

Ветер - указаны скорость ветра в м/с - средняя за 10 мин, порывы в срок и между сроками (в фигурных скобках) и направление, откуда дует ветер: С - северный, СВ - северо-восточный, В - восточный, ЮВ - юго-восточный, Ю - южный, ЮЗ - юго-западный, З - западный, СЗ - северо-западный.
Видимость - горизонтальная дальность видимости в метрах или километрах. При видимости от 1 до 10 км при отсутствии осадков обычно наблюдается дымка, при ухудшении видимости до 1 км и менее - туман. В сухую погоду видимость может ухудшаться дымом, пылью или мглою.
Явления - указаны атмосферные явления, наблюдавшиеся в срок или в последний час перед сроком; фигурными скобками обозначены явления, наблюдавшиеся между сроками (за 1-3 часа до срока); квадратными скобками обозначены град или гололедные отложения с указанием их диаметра в мм.
Облачность - указаны через наклонную черту общая и нижняя облачность в баллах и высота нижней границы облаков в метрах; квадратными скобками обозначены формы облаков: Ci - перистые, Cs - перисто-слоистые, Cc - перисто-кучевые, Ac - высококучевые, As - высокослоистые, Sc - слоисто-кучевые, Ns - слоисто-дождевые, Cu - кучевые, Cb - кучево-дождевые. Подробнее классификацию облаков см. в Атласе облаков (PDF).
T - Температура воздуха - температура, измеренная на высоте 2 м над землей.
Td - Температура точки росы - температура, при понижении до которой содержащийся в воздухе водяной пар достигнет насыщения.
f - Относительная влажность воздуха - влажноcть воздуха, измеренная на высоте 2 м над землей.
Te - Эффективная температура - температура, которую ощущает одетый по сезону человек в тени. Характеристика душности погоды. При расчете учитывается влияние влажности воздуха и скорости ветра на теплоощущения человека.
Tes - Эффективная температура на солнце - температура, которую ощущает человек, с поправкой на солнечный нагрев. Характеристика знойности погоды. Зависит от высоты солнца над горизонтом, облачности и скорости ветра. Ночью, в пасмурную погоду, а также при ветре 12 м/с и более поправка равна нулю.
P - Атмосферное давление - приведенное к уровню моря атмосферное давление.
Po - Атмосферное давление - измеренное на уровне метеостанции атмосферное давление.
Tmin - Минимальная температура - минимум температуры воздуха на высоте 2 м над землей.
Tmax - Максимальная температура - максимум температуры воздуха на высоте 2 м над землей.
R - Количество осадков - Количество выпавших осадков за период времени, мм. При наведении курсора мыши на число - период времени, за который выпало указанное количество осадков.
R24 - Количество осадков - Количество выпавших осадков за 24 часа, мм.
S - Снежный покров - Высота снежного покрова, см. При наведении курсора мыши на число - состояние снежного покрова и степень покрытия местности в баллах.